Location: El Bakhil
(32.7726°N, 5.5387°W)
Time: 19:54:20
(UTC+00:00)

Envisat - Pass Details

Date: 04 December 2021
Orbit: 764 x 766 km, 98.2° (Epoch: 18 January)

Event Time Altitude Azimuth Distance (km) Brightness Sun altitude
Rises 03:57:02 0° 39° (NE) 3,233 6.6 -39.7°
Reaches altitude 10° 04:01:01 10° 70° (ENE) 2,301 6.1 -38.8°
Maximum altitude 04:02:51 12° 92° (E) 2,168 6.0 -38.4°
Drops below altitude 10° 04:04:42 10° 114° (ESE) 2,295 6.1 -38.0°
Sets 04:08:38 0° 145° (SE) 3,215 6.7 -37.2°
